Weather History for KGPZ - December, 2014

Change the Weather History Date:

Monday, December 29, 2014

  Actual Average Record
Temperature  
Mean Temperature -5 °F -  
Max Temperature 1 °F 18 °F 44 °F (1999)
Min Temperature -11 °F -1 °F -40 °F (1917)
Degree Days  
Heating Degree Days 70    
Moisture  
Dew Point -13 °F    
Average Humidity 72    
Maximum Humidity 84    
Minimum Humidity 55    
Precipitation  
Precipitation 0.00 in - - ()
Sea Level Pressure  
Sea Level Pressure 30.50 in    
Wind  
Wind Speed 10 mph (NW)    
Max Wind Speed 14 mph    
Max Gust Speed 16 mph    
Visibility 10 miles    
Events      
Averages and records for this station are not official NWS values.
T = Trace of Precipitation, MM = Missing Value Source: NWS Daily Summary

Daily Weather History Graph

Daily Weather History Graph

Search for Another Location

Airport or City:

Trip Planner

Search our weather history database for the weather conditions in past years. The results will help you decide how hot, cold, wet, or windy it might be!

Date:

Astronomy

Dec. 29, 2014 Rise Set
Actual Time 8:00 AM CST 4:31 PM CST
Civil Twilight 7:24 AM CST 5:07 PM CST
Nautical Twilight 6:45 AM CST 5:46 PM CST
Astronomical Twilight 6:08 AM CST 6:23 PM CST
Moon 12:26 PM CST (12/29) 12:58 AM CST (12/29)
Length of Visible Light 9h 42m
Length of Day
8h 31m
First Quarter, 61% of the Moon is Illuminated
Dec 29
First Quarter
Jan 4
Full
Jan 13
Last Quarter
Jan 20
New
Jan 26
First Quarter

Hourly Weather History & Observations

Time (CST) Temp. Windchill Dew Point Humidity Pressure Visibility Wind Dir Wind Speed Gust Speed Precip Events Conditions
12:15 AM -4.0 °F -22.1 °F -9.4 °F 78% 30.35 in 10.0 mi NNW 11.5 mph - N/A   Clear
12:35 AM -4.0 °F -17.8 °F -9.4 °F 78% 30.35 in 10.0 mi NW 6.9 mph - N/A   Clear
12:55 AM -4.0 °F -19.0 °F -9.4 °F 78% 30.36 in 10.0 mi NW 8.1 mph - N/A   Clear
1:15 AM -4.0 °F -19.0 °F -9.4 °F 78% 30.37 in 10.0 mi NW 8.1 mph - N/A   Clear
1:35 AM -5.8 °F -22.4 °F -9.4 °F 84% 30.38 in 10.0 mi NW 9.2 mph - N/A   Clear
1:55 AM -5.8 °F -21.2 °F -11.2 °F 77% 30.38 in 10.0 mi NW 8.1 mph - N/A   Clear
2:15 AM -5.8 °F -23.4 °F -9.4 °F 84% 30.39 in 10.0 mi NW 10.4 mph - N/A   Clear
2:35 AM -5.8 °F -24.4 °F -11.2 °F 77% 30.39 in 10.0 mi NW 11.5 mph - N/A   Clear
2:55 AM -5.8 °F -25.2 °F -11.2 °F 77% 30.40 in 10.0 mi NW 12.7 mph - N/A   Clear
3:15 AM -7.6 °F -26.6 °F - N/A% 30.40 in 10.0 mi NW 11.5 mph - N/A   Clear
3:35 AM -7.6 °F -26.6 °F -11.2 °F 84% 30.40 in 10.0 mi NW 11.5 mph - N/A   Clear
3:55 AM -7.6 °F -24.6 °F -11.2 °F 84% 30.41 in 10.0 mi NW 9.2 mph - N/A   Clear
4:15 AM -7.6 °F -25.7 °F -11.2 °F 84% 30.41 in 10.0 mi NW 10.4 mph - N/A   Clear
4:35 AM -7.6 °F -26.6 °F -13.0 °F 77% 30.42 in 10.0 mi NW 11.5 mph - N/A   Clear
4:55 AM -7.6 °F -23.4 °F -14.8 °F 71% 30.42 in 10.0 mi NW 8.1 mph - N/A   Partly Cloudy
5:15 AM -9.4 °F -27.9 °F -13.0 °F 84% 30.43 in 10.0 mi NW 10.4 mph - N/A   Partly Cloudy
5:35 AM -9.4 °F -26.8 °F -14.8 °F 77% 30.43 in 10.0 mi NW 9.2 mph - N/A   Scattered Clouds
5:55 AM -9.4 °F -27.9 °F -14.8 °F 77% 30.44 in 10.0 mi NW 10.4 mph - N/A   Scattered Clouds
6:15 AM -9.4 °F -30.6 °F -14.8 °F 77% 30.44 in 10.0 mi NW 13.8 mph - N/A   Partly Cloudy
6:35 AM -9.4 °F -28.9 °F -14.8 °F 77% 30.45 in 10.0 mi NW 11.5 mph - N/A   Partly Cloudy
6:55 AM -11.2 °F -31.1 °F -16.6 °F 77% 30.46 in 10.0 mi NW 11.5 mph - N/A   Partly Cloudy
7:15 AM -11.2 °F -32.1 °F -16.6 °F 77% 30.46 in 10.0 mi NW 12.7 mph - N/A   Partly Cloudy
7:35 AM -11.2 °F -31.1 °F -16.6 °F 77% 30.47 in 10.0 mi NW 11.5 mph - N/A   Clear
7:55 AM -11.2 °F -30.1 °F -16.6 °F 77% 30.47 in 10.0 mi NW 10.4 mph - N/A   Partly Cloudy
8:15 AM -11.2 °F -30.1 °F -16.6 °F 77% 30.48 in 9.0 mi NW 10.4 mph - N/A   Partly Cloudy
8:35 AM -11.2 °F -30.1 °F -16.6 °F 77% 30.49 in 5.0 mi NW 10.4 mph - N/A   Scattered Clouds
8:55 AM -11.2 °F -31.1 °F -16.6 °F 77% 30.50 in 8.0 mi NW 11.5 mph - N/A   Scattered Clouds
9:15 AM -11.2 °F -30.1 °F -16.6 °F 77% 30.51 in 6.0 mi NW 10.4 mph - N/A   Partly Cloudy
9:35 AM -11.2 °F -27.8 °F -14.8 °F 84% 30.52 in 10.0 mi NW 8.1 mph - N/A   Partly Cloudy
9:55 AM -9.4 °F -26.8 °F -14.8 °F 77% 30.53 in 9.0 mi WNW 9.2 mph - N/A   Clear
10:15 AM -9.4 °F -27.9 °F -14.8 °F 77% 30.54 in 10.0 mi NW 10.4 mph - N/A   Clear
10:35 AM -9.4 °F -26.8 °F -14.8 °F 77% 30.54 in 10.0 mi WNW 9.2 mph - N/A   Clear
10:55 AM -7.6 °F -22.1 °F -11.2 °F 84% 30.54 in 10.0 mi WNW 6.9 mph - N/A   Clear
11:15 AM -7.6 °F -23.4 °F -13.0 °F 77% 30.54 in 10.0 mi NW 8.1 mph - N/A   Clear
11:35 AM -5.8 °F -23.4 °F -11.2 °F 77% 30.54 in 10.0 mi NW 10.4 mph - N/A   Clear
11:55 AM -5.8 °F -22.4 °F -11.2 °F 77% 30.53 in 10.0 mi NW 9.2 mph - N/A   Clear
12:15 PM -2.2 °F -16.8 °F -11.2 °F 66% 30.53 in 10.0 mi NW 8.1 mph - N/A   Clear
12:35 PM -2.2 °F -16.8 °F -9.4 °F 71% 30.52 in 10.0 mi NW 8.1 mph - N/A   Clear
12:55 PM -2.2 °F -18.9 °F -11.2 °F 66% 30.51 in 10.0 mi NW 10.4 mph - N/A   Clear
1:15 PM -0.4 °F -18.4 °F -9.4 °F 66% 30.51 in 10.0 mi NW 12.7 mph - N/A   Clear
1:35 PM -0.4 °F -17.6 °F -11.2 °F 60% 30.51 in 10.0 mi NNW 11.5 mph - N/A   Clear
1:55 PM -0.4 °F -16.7 °F -9.4 °F 66% 30.51 in 10.0 mi NW 10.4 mph - N/A   Clear
2:15 PM 1.4 °F -15.3 °F -11.2 °F 56% 30.51 in 10.0 mi NW 11.5 mph - N/A   Clear
2:35 PM 1.4 °F -15.3 °F -11.2 °F 56% 30.51 in 10.0 mi West 11.5 mph 16.1 mph N/A   Clear
2:55 PM 1.4 °F -12.5 °F -9.4 °F 61% 30.51 in 10.0 mi WNW 8.1 mph - N/A   Clear
3:15 PM 1.4 °F -11.3 °F -9.4 °F 61% 30.52 in 10.0 mi WNW 6.9 mph - N/A   Clear
3:35 PM 1.4 °F -14.5 °F -9.4 °F 61% 30.52 in 10.0 mi WNW 10.4 mph - N/A   Clear
3:55 PM 1.4 °F -11.3 °F -11.2 °F 56% 30.52 in 10.0 mi West 6.9 mph - N/A   Clear
4:15 PM 1.4 °F -9.9 °F -11.2 °F 56% 30.53 in 10.0 mi WNW 5.8 mph - N/A   Clear
4:35 PM -0.4 °F -12.0 °F -11.2 °F 60% 30.53 in 10.0 mi WNW 5.8 mph - N/A   Clear
4:55 PM -0.4 °F -14.7 °F - N/A% 30.53 in 10.0 mi WNW 8.1 mph - N/A   Clear
5:15 PM -0.4 °F -14.7 °F -11.2 °F 60% 30.53 in 10.0 mi WNW 8.1 mph - N/A   Clear
5:35 PM -0.4 °F -15.7 °F -13.0 °F 55% 30.53 in 10.0 mi WNW 9.2 mph - N/A   Clear
5:55 PM -0.4 °F -13.4 °F -13.0 °F 55% 30.53 in 10.0 mi WNW 6.9 mph - N/A   Clear
6:15 PM -2.2 °F -18.0 °F -13.0 °F 60% 30.54 in 10.0 mi NW 9.2 mph - N/A   Clear
6:35 PM -2.2 °F -19.9 °F -13.0 °F 60% 30.54 in 10.0 mi NW 11.5 mph - N/A   Clear
6:55 PM -2.2 °F -20.7 °F -13.0 °F 60% 30.54 in 10.0 mi NNW 12.7 mph - N/A   Clear
7:15 PM -2.2 °F -19.9 °F -13.0 °F 60% 30.55 in 10.0 mi NW 11.5 mph - N/A   Clear
7:35 PM -2.2 °F -20.7 °F -13.0 °F 60% 30.56 in 10.0 mi NW 12.7 mph - N/A   Clear
7:55 PM -4.0 °F -23.0 °F -13.0 °F 65% 30.56 in 10.0 mi NW 12.7 mph - N/A   Clear
8:15 PM -4.0 °F -16.3 °F -13.0 °F 65% 30.56 in 10.0 mi WNW 5.8 mph - N/A   Clear
8:35 PM -5.8 °F -19.9 °F -11.2 °F 77% 30.56 in 10.0 mi WNW 6.9 mph - N/A   Clear
8:55 PM -5.8 °F -22.4 °F -11.2 °F 77% 30.56 in 10.0 mi WNW 9.2 mph - N/A   Clear
9:15 PM -5.8 °F -23.4 °F -11.2 °F 77% 30.56 in 10.0 mi WNW 10.4 mph - N/A   Clear
9:35 PM -5.8 °F -21.2 °F -13.0 °F 71% 30.56 in 10.0 mi WNW 8.1 mph - N/A   Clear
9:55 PM -5.8 °F -21.2 °F -11.2 °F 77% 30.57 in 10.0 mi WNW 8.1 mph - N/A   Clear
10:15 PM -7.6 °F -23.4 °F -13.0 °F 77% 30.58 in 10.0 mi WNW 8.1 mph - N/A   Clear
10:35 PM -7.6 °F -26.6 °F -13.0 °F 77% 30.58 in 10.0 mi WNW 11.5 mph 16.1 mph N/A   Clear
10:55 PM -7.6 °F -25.7 °F -14.8 °F 71% 30.58 in 10.0 mi WNW 10.4 mph - N/A   Clear
11:15 PM -7.6 °F -25.7 °F -14.8 °F 71% 30.58 in 10.0 mi WNW 10.4 mph - N/A   Clear
11:35 PM -7.6 °F -26.6 °F -14.8 °F 71% 30.59 in 10.0 mi WNW 11.5 mph - N/A   Clear
11:55 PM -7.6 °F -25.7 °F -14.8 °F 71% 30.59 in 10.0 mi NW 10.4 mph - N/A   Clear